Regional Weather Roundup
Issued by NWS

Home | Current Version | Previous Version | Text Only | Print | Product List | Glossary On
Versions: 1 2 3 4 5 6 7 8 9 10 11 12 13 14 15 16 17 18 19 20 21 22 23 24 25 26 27 28 29 30 31 32 33 34 35 36 37 38 39 40 41 42 43 44 45 46 47 48 49 50
000
ASUS45 KABQ 250701
RWRNM
NEW MEXICO REGIONAL WEATHER ROUNDUP
NATIONAL WEATHER SERVICE ALBUQUERQUE NM
100 AM MDT TUE JUL 25 2017

NOTE: "FAIR" MEANS FEW OR NO CLOUDS BELOW 12,000 FEET AGL WITH NO
       SIGNIFICANT WEATHER OR OBSTRUCTIONS TO VISION.

      THIS PRODUCT IS RELEASED AS TWO VERSIONS.  ONE VERSION NEAR
      THE TOP OF THE HOUR CONTAINING PRELIMINARY DATA FROM ALBUQUERQUE
      AND OTHER STATIONS.  A FINAL VERSION WITH ADDITIONAL DATA IS
      ISSUED ABOUT 10 MINUTES AFTER THE HOUR.

NMZ501-503-504-510>518-250800-
NORTHWEST PLATEAU/NORTHCENTRAL MOUNTAINS

CITY           SKY/WX    TMP DP  RH WIND       PRES   REMARKS
FARMINGTON     CLOUDY    64  62  93 E9        30.18F
LOS ALAMOS     MOCLDY    63  55  77 N6        30.34R
SANTA FE       MOCLDY    65  59  81 N12       30.25R
TAOS           CLOUDY    63  52  67 W8        30.35R
ANGEL FIRE     FAIR      54  53  95 CALM      30.43R

$$
NMZ402-403-502-505>509-250800-
WESTCENTRAL MOUNTAINS/SOUTHWEST MOUNTAINS

CITY           SKY/WX    TMP DP  RH WIND       PRES   REMARKS
GALLUP         CLOUDY    62  60  93 CALM      30.26R
GRANTS         FAIR      61  57  87 CALM      30.28R
SILVER CITY    FAIR      66  62  89 CALM      30.21R

$$
NMZ407-409-411-412-250800-
SOUTHERN DESERTS

CITY           SKY/WX    TMP DP  RH WIND       PRES   REMARKS
DEMING         FAIR      72  67  84 SW6       30.13R
LAS CRUCES     FAIR      73  65  74 S6        30.14F
HOLLOMAN AFB   FAIR      78  62  57 SE15      30.12R
ALAMOGORDO     FAIR      77  59  53 S14G20    30.12R
T OR C         FAIR      74  59  59 W5        30.13S

$$
NMZ519>523-250800-
CENTRAL VALLEYS/CENTRAL HIGHLANDS

CITY           SKY/WX    TMP DP  RH WIND       PRES   REMARKS
ALBUQUERQUE    MOCLDY    75  57  53 SE5       30.17S
DOUBLE EAGLE   FAIR      69  53  56 SW3       30.21S
MORIARTY ARPT  FAIR      69  60  73 CALM      30.25S
CLINES CORNERS FAIR      64  52  64 S8        30.31S
BELEN          NOT AVBL
SOCORRO        FAIR      71  61  71 S5        30.13S

$$
NMZ524>526-539-540-250800-
SOUTHCENTRAL MOUNTAINS

CITY           SKY/WX    TMP DP  RH WIND       PRES   REMARKS
RUIDOSO        FAIR      61  57  88 SW6       30.32S

$$
NMZ527>531-250800-
NORTHEAST HIGHLANDS/NORTHEAST PLAINS

CITY           SKY/WX    TMP DP  RH WIND       PRES   REMARKS
RATON          FAIR      66  56  70 SE3       30.23S
CLAYTON        FAIR      66  62  87 S10       30.16S

$$
NMZ532>537-250800-
EASTCENTRAL PLAINS

CITY           SKY/WX    TMP DP  RH WIND       PRES   REMARKS
SANTA ROSA     FAIR      73  58  57 S7        30.14S
TUCUMCARI      FAIR      76  63  64 S12       30.08S
CANNON AFB     FAIR      69  67  94 S6        30.14S
CLOVIS AIRPORT FAIR      68  65  90 SE6       30.14S

$$
NMZ028-029-538-250800-
SOUTHEAST PLAINS

CITY           SKY/WX    TMP DP  RH WIND       PRES   REMARKS
ROSWELL        FAIR      81  58  45 S9        30.06S
ARTESIA        FAIR      79  63  57 S8        30.07R
CARLSBAD       FAIR      78  64  61 S12       30.05R
HOBBS          FAIR      75  63  64 SE6       30.11S


$$




USA.gov is the U.S. government's official web portal to all federal, state and local government web resources and services.